When you browse on this site, cookies collect data to enhance your experience and personalize the content and advertising you see.
Visit our Privacy Policy to learn more. By continuing to use the site, you agree to this use of cookies and data.
  • In Hungary
  • List of Countries
  • For 7 days
  • Water Temperature
  • Weather Map
  • News
  • Weather Widgets
  • user-avatar
    Login

    Hourly Weather Alandur

    Today, 4 April, Saturday

    Time Temperature Precipitation Wind Pressure Humidity
    00:00 +26°C° 0 mm 2 mps 756 mmHg 86%
    01:00 +26°C° 0 mm 2 mps 756 mmHg 87%
    02:00 +26°C° 0 mm 2 mps 755 mmHg 88%
    03:00 +25°C° 0 mm 2 mps 755 mmHg 89%
    04:00 +25°C° 0 mm 2 mps 756 mmHg 90%
    05:00 +25°C° 0 mm 2 mps 756 mmHg 93%
    06:00 +27°C° 0 mm 2 mps 756 mmHg 85%
    07:00 +28°C° 0 mm 2 mps 757 mmHg 76%
    08:00 +30°C° 0 mm 3 mps 757 mmHg 67%
    09:00 +33°C° 0 mm 3 mps 758 mmHg 57%
    10:00 +35°C° 0 mm 4 mps 758 mmHg 48%
    11:00 +38°C° 0 mm 4 mps 758 mmHg 37%
    12:00 +39°C° 0 mm 5 mps 757 mmHg 37%
    13:00 +39°C° 0 mm 5 mps 756 mmHg 37%
    14:00 +40°C° 0 mm 6 mps 755 mmHg 37%
    15:00 +38°C° 0 mm 6 mps 755 mmHg 45%
    16:00 +35°C° 0 mm 6 mps 755 mmHg 53%
    17:00 +33°C° 0 mm 6 mps 755 mmHg 62%
    18:00 +32°C° 0 mm 5 mps 756 mmHg 68%
    19:00 +29°C° 0 mm 5 mps 756 mmHg 74%
    20:00 +28°C° 0 mm 4 mps 757 mmHg 81%
    21:00 +28°C° 0 mm 4 mps 757 mmHg 83%
    22:00 +28°C° 0 mm 4 mps 757 mmHg 84%
    23:00 +28°C° 0 mm 3 mps 758 mmHg 86%

    Tomorrow, 5 April, Sunday

    Time Temperature Precipitation Wind Pressure Humidity
    00:00 +27°C° 0 mm 3 mps 757 mmHg 87%
    01:00 +27°C° 0 mm 2 mps 756 mmHg 89%
    02:00 +27°C° 0 mm 2 mps 755 mmHg 90%
    03:00 +27°C° 0 mm 2 mps 755 mmHg 88%
    04:00 +27°C° 0 mm 2 mps 756 mmHg 85%
    05:00 +28°C° 0 mm 2 mps 756 mmHg 83%
    06:00 +29°C° 0 mm 2 mps 757 mmHg 76%
    07:00 +31°C° 0 mm 2 mps 757 mmHg 68%
    08:00 +32°C° 0 mm 2 mps 758 mmHg 61%
    09:00 +35°C° 0 mm 3 mps 758 mmHg 54%
    10:00 +36°C° 0 mm 4 mps 758 mmHg 46%
    11:00 +38°C° 0 mm 4 mps 758 mmHg 39%
    12:00 +39°C° 0 mm 5 mps 757 mmHg 40%
    13:00 +39°C° 0 mm 5 mps 756 mmHg 41%
    14:00 +39°C° 0 mm 6 mps 755 mmHg 42%
    15:00 +38°C° 0 mm 6 mps 755 mmHg 49%
    16:00 +35°C° 0 mm 6 mps 755 mmHg 55%
    17:00 +34°C° 0 mm 6 mps 755 mmHg 61%
    18:00 +32°C° 0 mm 5 mps 755 mmHg 68%
    19:00 +30°C° 0 mm 5 mps 756 mmHg 75%
    20:00 +29°C° 0 mm 4 mps 757 mmHg 82%
    21:00 +28°C° 0 mm 4 mps 757 mmHg 84%
    22:00 +28°C° 0 mm 3 mps 757 mmHg 86%
    23:00 +28°C° 0 mm 2 mps 757 mmHg 88%

    Day after tomorrow, 6 April, Monday

    Time Temperature Precipitation Wind Pressure Humidity
    00:00 +28°C° 0 mm 2 mps 757 mmHg 89%
    01:00 +27°C° 0 mm 2 mps 756 mmHg 90%
    02:00 +27°C° 0 mm 2 mps 756 mmHg 91%
    03:00 +27°C° 0 mm 2 mps 756 mmHg 91%
    04:00 +27°C° 0 mm 2 mps 756 mmHg 92%
    05:00 +27°C° 0 mm 3 mps 756 mmHg 92%
    06:00 +29°C° 0 mm 3 mps 756 mmHg 82%
    07:00 +32°C° 0 mm 4 mps 757 mmHg 71%
    08:00 +34°C° 0 mm 4 mps 758 mmHg 61%
    09:00 +35°C° 0 mm 4 mps 757 mmHg 53%
    10:00 +37°C° 0 mm 5 mps 757 mmHg 44%
    11:00 +40°C° 0 mm 5 mps 757 mmHg 36%
    12:00 +40°C° 0 mm 6 mps 756 mmHg 38%
    13:00 +40°C° 0 mm 6 mps 755 mmHg 40%
    14:00 +40°C° 0 mm 7 mps 754 mmHg 42%
    15:00 +39°C° 0 mm 7 mps 754 mmHg 50%
    16:00 +36°C° 0 mm 7 mps 754 mmHg 59%
    17:00 +34°C° 0 mm 7 mps 754 mmHg 67%
    18:00 +33°C° 0 mm 6 mps 754 mmHg 74%
    19:00 +30°C° 0 mm 5 mps 755 mmHg 81%
    20:00 +29°C° 0 mm 5 mps 756 mmHg 89%
    21:00 +29°C° 0 mm 4 mps 756 mmHg 90%
    22:00 +28°C° 0 mm 3 mps 756 mmHg 92%
    23:00 +28°C° 0 mm 3 mps 756 mmHg 94%

    7 April, Tuesday

    Time Temperature Precipitation Wind Pressure Humidity
    00:00 +28°C° 0 mm 3 mps 755 mmHg 93%
    01:00 +28°C° 0 mm 3 mps 755 mmHg 93%
    02:00 +28°C° 0 mm 3 mps 754 mmHg 93%
    03:00 +28°C° 0 mm 3 mps 754 mmHg 93%
    04:00 +28°C° 0 mm 4 mps 755 mmHg 93%
    05:00 +28°C° 0 mm 4 mps 755 mmHg 93%
    06:00 +29°C° 0 mm 4 mps 755 mmHg 83%
    07:00 +32°C° 0 mm 5 mps 756 mmHg 73%
    08:00 +33°C° 0 mm 6 mps 757 mmHg 63%
    09:00 +35°C° 0 mm 6 mps 756 mmHg 54%
    10:00 +38°C° 0 mm 6 mps 756 mmHg 45%
    11:00 +40°C° 0 mm 6 mps 756 mmHg 37%
    12:00 +41°C° 0 mm 7 mps 755 mmHg 36%
    13:00 +41°C° 0 mm 7 mps 754 mmHg 35%
    14:00 +43°C° 0 mm 7 mps 753 mmHg 34%
    15:00 +40°C° 0 mm 7 mps 753 mmHg 42%
    16:00 +38°C° 0 mm 7 mps 753 mmHg 50%
    17:00 +35°C° 0 mm 7 mps 752 mmHg 58%
    18:00 +33°C° 0 mm 7 mps 753 mmHg 66%
    19:00 +32°C° 0 mm 7 mps 754 mmHg 74%
    20:00 +30°C° 0 mm 7 mps 754 mmHg 82%
    21:00 +29°C° 0 mm 6 mps 754 mmHg 84%
    22:00 +29°C° 0 mm 5 mps 755 mmHg 86%
    23:00 +29°C° 0 mm 4 mps 755 mmHg 88%

    8 April, Wednesday

    Time Temperature Precipitation Wind Pressure Humidity
    00:00 +28°C° 0 mm 4 mps 754 mmHg 89%
    01:00 +28°C° 0 mm 4 mps 754 mmHg 89%
    02:00 +28°C° 0 mm 4 mps 754 mmHg 90%
    03:00 +28°C° 0 mm 4 mps 754 mmHg 89%
    04:00 +28°C° 0 mm 4 mps 754 mmHg 88%
    05:00 +28°C° 0 mm 4 mps 755 mmHg 86%
    06:00 +30°C° 0 mm 4 mps 755 mmHg 78%
    07:00 +32°C° 0 mm 5 mps 756 mmHg 69%
    08:00 +34°C° 0 mm 5 mps 757 mmHg 61%
    09:00 +36°C° 0 mm 5 mps 756 mmHg 54%
    10:00 +37°C° 0 mm 5 mps 756 mmHg 47%
    11:00 +40°C° 0 mm 5 mps 756 mmHg 40%
    12:00 +40°C° 0 mm 6 mps 755 mmHg 40%
    13:00 +41°C° 0 mm 7 mps 754 mmHg 40%
    14:00 +41°C° 0 mm 8 mps 753 mmHg 40%
    15:00 +39°C° 0 mm 7 mps 753 mmHg 48%
    16:00 +36°C° 0 mm 7 mps 753 mmHg 55%
    17:00 +35°C° 0 mm 7 mps 753 mmHg 63%
    18:00 +34°C° 0 mm 6 mps 753 mmHg 68%
    19:00 +33°C° 0 mm 6 mps 754 mmHg 72%
    20:00 +32°C° 0 mm 5 mps 754 mmHg 77%
    21:00 +32°C° 0 mm 5 mps 754 mmHg 77%
    22:00 +32°C° 0 mm 5 mps 755 mmHg 77%
    23:00 +32°C° 0 mm 6 mps 755 mmHg 77%

    9 April, Thursday

    Time Temperature Precipitation Wind Pressure Humidity
    00:00 +32°C° 0 mm 6 mps 754 mmHg 79%
    01:00 +30°C° 0 mm 5 mps 754 mmHg 80%
    02:00 +30°C° 0 mm 5 mps 753 mmHg 81%
    03:00 +30°C° 0 mm 5 mps 753 mmHg 81%
    04:00 +29°C° 0 mm 5 mps 754 mmHg 80%
    05:00 +29°C° 0 mm 5 mps 754 mmHg 80%
    06:00 +32°C° 0 mm 5 mps 754 mmHg 72%
    07:00 +33°C° 0 mm 6 mps 755 mmHg 64%
    08:00 +35°C° 0 mm 6 mps 756 mmHg 57%
    09:00 +38°C° 0 mm 6 mps 755 mmHg 51%
    10:00 +39°C° 0 mm 6 mps 755 mmHg 45%
    11:00 +41°C° 0 mm 7 mps 755 mmHg 40%
    12:00 +40°C° 0 mm 7 mps 754 mmHg 42%
    13:00 +40°C° 0 mm 8 mps 754 mmHg 44%
    14:00 +40°C° 0 mm 8 mps 753 mmHg 46%
    15:00 +38°C° 0 mm 8 mps 753 mmHg 52%
    16:00 +37°C° 0 mm 8 mps 753 mmHg 57%
    17:00 +34°C° 0 mm 7 mps 752 mmHg 63%
    18:00 +33°C° 0 mm 6 mps 753 mmHg 69%
    19:00 +32°C° 0 mm 5 mps 754 mmHg 75%
    20:00 +30°C° 0 mm 4 mps 754 mmHg 81%
    21:00 +30°C° 0 mm 4 mps 754 mmHg 81%
    22:00 +29°C° 0 mm 4 mps 755 mmHg 82%
    23:00 +29°C° 0 mm 4 mps 755 mmHg 83%
    Show more